Location: Gollag?dem
(17.0207°N, 80.7261°E)
Time: 04:30:28
(UTC+00:00)

Meteor 2-20 - Pass Details

Date: 03 August 2024
Orbit: 937 x 959 km, 82.5° (Epoch: 13 May)

Event Time Altitude Azimuth Distance (km) Brightness Sun altitude
Rises 23:17:57 0° 187° (S) 3,625 7.2 -14.2°
Reaches altitude 10° 23:20:27 10° 188° (S) 2,679 6.5 -13.7°
Maximum altitude 23:26:34 77° 274° (W) 978 4.4 -12.3°
Drops below altitude 10° 23:32:41 10° 1° (N) 2,671 7.1 -11.0°
Sets 23:35:11 0° 2° (N) 3,614 7.8 -10.4°
